Year,Month,Day,Hour,Minute,Value (Times are PST for temperature in C)
2008,06,16,00,00,11.10
2008,06,16,00,01,11.10
2008,06,16,00,02,11.10
2008,06,16,00,03,11.10
2008,06,16,00,04,11.10
2008,06,16,00,05,11.00
2008,06,16,00,06,11.00
2008,06,16,00,07,11.00
2008,06,16,00,08,10.90
2008,06,16,00,09,10.90
2008,06,16,00,10,10.90
2008,06,16,00,11,10.80
2008,06,16,00,12,10.80
2008,06,16,01,02,11.00
2008,06,16,01,03,11.00
2008,06,16,01,04,11.00
2008,06,16,01,05,10.90
2008,06,16,01,06,10.90
2008,06,16,01,07,10.90
2008,06,16,01,08,11.00
2008,06,16,01,09,11.10
2008,06,16,01,10,11.10
2008,06,16,01,11,11.10
2008,06,16,01,12,11.10
2008,06,16,01,13,11.10
2008,06,16,01,14,11.20
2008,06,16,01,15,11.20
2008,06,16,01,16,11.20
2008,06,16,01,17,11.10
2008,06,16,01,18,11.10
2008,06,16,01,19,11.20
2008,06,16,01,20,11.20
2008,06,16,01,21,11.20
2008,06,16,01,22,11.20
2008,06,16,01,23,11.20
2008,06,16,01,24,11.20
2008,06,16,01,25,11.10
2008,06,16,01,26,11.10
2008,06,16,01,27,11.10
2008,06,16,01,28,11.10
2008,06,16,01,29,11.10
2008,06,16,01,30,11.00
2008,06,16,01,31,11.00
2008,06,16,01,32,10.90
2008,06,16,01,33,10.90
2008,06,16,01,34,10.90
2008,06,16,01,35,10.90
2008,06,16,01,36,10.90
2008,06,16,01,37,10.80
2008,06,16,01,38,10.80
2008,06,16,01,39,10.80
2008,06,16,01,40,10.80
2008,06,16,01,41,10.80
2008,06,16,01,42,10.80
2008,06,16,01,43,10.80
2008,06,16,01,44,10.80
2008,06,16,01,45,10.70
2008,06,16,01,46,10.70
2008,06,16,01,47,10.70
2008,06,16,01,48,10.70
2008,06,16,01,49,10.60
2008,06,16,01,50,10.60
2008,06,16,01,51,10.60
2008,06,16,01,52,10.60
2008,06,16,01,53,10.60
2008,06,16,01,54,10.60
2008,06,16,01,55,10.60
2008,06,16,01,56,10.60
2008,06,16,01,57,10.50
2008,06,16,01,58,10.50
2008,06,16,01,59,10.60
2008,06,16,02,00,10.60
2008,06,16,02,01,10.60
2008,06,16,02,02,10.60
2008,06,16,02,03,10.60
2008,06,16,02,04,10.60
2008,06,16,02,05,10.60
2008,06,16,02,06,10.50
2008,06,16,02,07,10.50
2008,06,16,02,08,10.50
2008,06,16,02,09,10.50
2008,06,16,02,10,10.50
2008,06,16,02,11,10.40
2008,06,16,02,12,10.40
2008,06,16,02,13,10.40
2008,06,16,02,14,10.40
2008,06,16,02,15,10.40
2008,06,16,02,16,10.40
2008,06,16,02,17,10.40
2008,06,16,02,18,10.40
2008,06,16,02,19,10.40
2008,06,16,02,20,10.30
2008,06,16,02,21,10.40
2008,06,16,02,22,10.40
2008,06,16,02,23,10.40
2008,06,16,02,24,10.40
2008,06,16,02,25,10.40
2008,06,16,02,26,10.40
2008,06,16,02,27,10.40
2008,06,16,02,28,10.40
2008,06,16,02,29,10.40
2008,06,16,02,30,10.40
2008,06,16,02,31,10.40
2008,06,16,02,32,10.40
2008,06,16,02,33,10.40
2008,06,16,02,34,10.30
2008,06,16,02,35,10.30
2008,06,16,02,36,10.30
2008,06,16,02,37,10.30
2008,06,16,02,38,10.30
2008,06,16,02,39,10.30
2008,06,16,02,40,10.30
2008,06,16,02,41,10.30
2008,06,16,02,42,10.30
2008,06,16,02,43,10.30
2008,06,16,02,44,10.30
2008,06,16,02,45,10.30
2008,06,16,02,46,10.30
2008,06,16,02,47,10.30
2008,06,16,02,48,10.30
2008,06,16,02,49,10.30
2008,06,16,02,50,10.30
2008,06,16,02,51,10.30
2008,06,16,02,52,10.30
2008,06,16,02,53,10.30
2008,06,16,02,54,10.20
2008,06,16,02,55,10.20
2008,06,16,02,56,10.20
2008,06,16,02,57,10.20
2008,06,16,02,58,10.20
2008,06,16,02,59,10.20
2008,06,16,03,00,10.20
2008,06,16,03,01,10.20
2008,06,16,03,02,10.20
2008,06,16,03,03,10.20
2008,06,16,03,04,10.20
2008,06,16,03,05,10.20
2008,06,16,03,06,10.20
2008,06,16,03,07,10.20
2008,06,16,03,08,10.20
2008,06,16,03,09,10.20
2008,06,16,03,10,10.10
2008,06,16,03,11,10.10
2008,06,16,03,12,10.10
2008,06,16,03,13,10.10
2008,06,16,03,14,10.10
2008,06,16,03,15,10.10
2008,06,16,03,16,10.00
2008,06,16,03,17,10.00
2008,06,16,03,18,9.90
2008,06,16,03,19,9.90
2008,06,16,03,20,9.90
2008,06,16,03,21,9.90
2008,06,16,03,22,9.90
2008,06,16,03,23,9.80
2008,06,16,03,24,9.80
2008,06,16,03,25,9.80
2008,06,16,03,26,9.80
2008,06,16,03,27,9.80
2008,06,16,03,28,9.80
2008,06,16,03,29,9.80
2008,06,16,03,30,9.80
2008,06,16,03,31,9.80
2008,06,16,03,32,9.80
2008,06,16,03,33,9.80
2008,06,16,03,34,9.80
2008,06,16,03,35,9.80
2008,06,16,03,36,9.80
2008,06,16,03,37,9.80
2008,06,16,03,38,9.80
2008,06,16,03,39,9.80
2008,06,16,03,40,9.80
2008,06,16,03,41,9.80
2008,06,16,03,42,9.80
2008,06,16,03,43,9.80
2008,06,16,03,44,9.70
2008,06,16,03,45,9.70
2008,06,16,03,46,9.70
2008,06,16,03,47,9.70
2008,06,16,03,48,9.70
2008,06,16,03,49,9.70
2008,06,16,03,50,9.60
2008,06,16,03,51,9.60
2008,06,16,03,52,9.60
2008,06,16,03,53,9.60
2008,06,16,03,54,9.60
2008,06,16,03,55,9.60
2008,06,16,03,56,9.60
2008,06,16,03,57,9.70
2008,06,16,03,58,9.70
2008,06,16,03,59,9.70
2008,06,16,04,00,9.60
2008,06,16,04,01,9.60
2008,06,16,04,02,9.60
2008,06,16,04,03,9.60
2008,06,16,04,04,9.60
2008,06,16,04,05,9.60
2008,06,16,04,06,9.60
2008,06,16,04,07,9.60
2008,06,16,04,08,9.60
2008,06,16,04,09,9.60
2008,06,16,04,10,9.60
2008,06,16,04,11,9.60
2008,06,16,04,12,9.60
2008,06,16,04,13,9.60
2008,06,16,04,14,9.60
2008,06,16,04,15,9.60
2008,06,16,04,16,9.60
2008,06,16,04,17,9.50
2008,06,16,04,18,9.50
2008,06,16,04,19,9.50
2008,06,16,04,20,9.40
2008,06,16,04,21,9.40
2008,06,16,04,22,9.40
2008,06,16,04,23,9.40
2008,06,16,04,24,9.40
2008,06,16,04,25,9.40
2008,06,16,04,26,9.40
2008,06,16,04,27,9.40
2008,06,16,04,28,9.40
2008,06,16,04,29,9.40
2008,06,16,04,30,9.40
2008,06,16,04,31,9.30
2008,06,16,04,32,9.30
2008,06,16,04,33,9.30
2008,06,16,04,34,9.30
2008,06,16,04,35,9.20
2008,06,16,04,36,9.20
2008,06,16,04,37,9.10
2008,06,16,04,38,9.10
2008,06,16,04,39,9.00
2008,06,16,04,40,8.90
2008,06,16,04,41,8.90
2008,06,16,04,42,8.90
2008,06,16,04,43,8.80
2008,06,16,04,44,8.80
2008,06,16,04,45,8.80
2008,06,16,04,46,8.70
2008,06,16,04,47,8.70
2008,06,16,04,48,8.70
2008,06,16,04,49,8.70
2008,06,16,04,50,8.70
2008,06,16,04,51,8.70
2008,06,16,04,52,8.70
2008,06,16,04,53,8.80
2008,06,16,04,54,8.90
2008,06,16,04,55,8.90
2008,06,16,04,56,9.00
2008,06,16,04,57,9.00
2008,06,16,04,58,9.10
2008,06,16,04,59,9.10
2008,06,16,05,00,9.10
2008,06,16,05,01,9.10
2008,06,16,05,02,9.10
2008,06,16,05,03,9.10
2008,06,16,05,04,9.10
2008,06,16,05,05,9.10
2008,06,16,05,06,9.10
2008,06,16,05,07,9.10
2008,06,16,05,08,9.10
2008,06,16,05,09,9.00
2008,06,16,05,10,9.00
2008,06,16,05,11,9.00
2008,06,16,05,12,9.00
2008,06,16,05,13,9.00
2008,06,16,05,14,8.90
2008,06,16,05,15,8.90
2008,06,16,05,16,8.90
2008,06,16,05,17,8.90
2008,06,16,05,18,8.90
2008,06,16,05,19,8.90
2008,06,16,05,20,8.90
2008,06,16,05,21,8.90
2008,06,16,05,22,8.90
2008,06,16,05,23,8.80
2008,06,16,05,24,8.80
2008,06,16,05,25,8.80
2008,06,16,05,26,8.80
2008,06,16,05,27,8.80
2008,06,16,05,28,8.80
2008,06,16,05,29,8.80
2008,06,16,05,30,8.80
2008,06,16,05,31,8.80
2008,06,16,05,32,8.80
2008,06,16,05,33,8.70
2008,06,16,05,34,8.70
2008,06,16,05,35,8.70
2008,06,16,05,36,8.70
2008,06,16,05,37,8.70
2008,06,16,05,38,8.70
2008,06,16,05,39,8.80
2008,06,16,05,40,8.80
2008,06,16,05,41,8.80
2008,06,16,05,42,8.80
2008,06,16,05,43,8.80
2008,06,16,05,44,8.80
2008,06,16,05,45,8.80
2008,06,16,05,46,8.80
2008,06,16,05,47,8.90
2008,06,16,05,48,8.90
2008,06,16,05,49,8.90
2008,06,16,05,50,8.90
2008,06,16,05,51,8.90
2008,06,16,05,52,8.90
2008,06,16,05,53,8.90
2008,06,16,05,54,9.00
2008,06,16,05,55,9.00
2008,06,16,05,56,9.00
2008,06,16,05,57,9.10
2008,06,16,05,58,9.10
2008,06,16,05,59,9.10
2008,06,16,06,00,9.20
2008,06,16,06,01,9.20
2008,06,16,06,02,9.30
2008,06,16,06,03,9.30
2008,06,16,06,04,9.30
2008,06,16,06,05,9.40
2008,06,16,06,06,9.40
2008,06,16,06,07,9.40
2008,06,16,06,08,9.40
2008,06,16,06,09,9.50
2008,06,16,06,10,9.50
2008,06,16,06,11,9.60
2008,06,16,06,12,9.60
2008,06,16,06,13,9.60
2008,06,16,06,14,9.60
2008,06,16,06,15,9.70
2008,06,16,06,16,9.70
2008,06,16,06,17,9.70
2008,06,16,06,18,9.70
2008,06,16,06,19,9.80
2008,06,16,06,20,9.80
2008,06,16,06,21,9.80
2008,06,16,06,22,9.90
2008,06,16,06,23,9.90
2008,06,16,06,24,9.90
2008,06,16,06,25,9.90
2008,06,16,06,26,9.90
2008,06,16,06,27,10.00
2008,06,16,06,28,10.00
2008,06,16,06,29,10.10
2008,06,16,06,30,10.10
2008,06,16,06,31,10.10
2008,06,16,06,32,10.20
2008,06,16,06,33,10.20
2008,06,16,06,34,10.20
2008,06,16,06,35,10.30
2008,06,16,06,36,10.30
2008,06,16,06,37,10.30
2008,06,16,06,38,10.40
2008,06,16,06,39,10.40
2008,06,16,06,40,10.40
2008,06,16,06,41,10.40
2008,06,16,06,42,10.50
2008,06,16,06,43,10.50
2008,06,16,06,44,10.60
2008,06,16,06,45,10.60
2008,06,16,06,46,10.70
2008,06,16,06,47,10.80
2008,06,16,06,48,10.80
2008,06,16,06,49,10.90
2008,06,16,06,50,10.90
2008,06,16,06,51,11.00
2008,06,16,06,52,11.10
2008,06,16,06,53,11.20
2008,06,16,06,54,11.20
2008,06,16,06,55,11.30
2008,06,16,06,56,11.40
2008,06,16,06,57,11.40
2008,06,16,06,58,11.50
2008,06,16,06,59,11.60
2008,06,16,07,00,11.70
2008,06,16,07,01,11.80
2008,06,16,07,02,11.90
2008,06,16,07,03,12.00
2008,06,16,07,04,12.00
2008,06,16,07,05,12.10
2008,06,16,07,06,12.20
2008,06,16,07,07,12.30
2008,06,16,07,08,12.30
2008,06,16,07,09,12.40
2008,06,16,07,10,12.40
2008,06,16,07,11,12.40
2008,06,16,07,12,12.40
2008,06,16,07,13,12.50
2008,06,16,07,14,12.50
2008,06,16,07,15,12.60
2008,06,16,07,16,12.60
2008,06,16,07,17,12.60
2008,06,16,07,18,12.60
2008,06,16,07,19,12.60
2008,06,16,07,20,12.60
2008,06,16,07,21,12.60
2008,06,16,07,22,12.70
2008,06,16,07,23,12.70
2008,06,16,07,24,12.70
2008,06,16,07,25,12.70
2008,06,16,07,26,12.70
2008,06,16,07,27,12.70
2008,06,16,07,28,12.80
2008,06,16,07,29,12.80
2008,06,16,07,30,12.80
2008,06,16,07,31,12.80
2008,06,16,07,32,12.80
2008,06,16,07,33,12.80
2008,06,16,07,34,12.80
2008,06,16,07,35,12.80
2008,06,16,07,36,12.80
2008,06,16,07,37,12.80
2008,06,16,07,38,12.80
2008,06,16,07,39,12.80
2008,06,16,07,40,12.80
2008,06,16,07,41,12.80
2008,06,16,07,42,12.90
2008,06,16,07,43,12.90
2008,06,16,07,44,12.90
2008,06,16,07,45,12.90
2008,06,16,07,46,12.90
2008,06,16,07,47,13.00
2008,06,16,07,48,13.00
2008,06,16,07,49,13.10
2008,06,16,07,50,13.10
2008,06,16,07,51,13.10
2008,06,16,07,52,13.10
2008,06,16,07,53,13.10
2008,06,16,07,54,13.20
2008,06,16,07,55,13.20
2008,06,16,07,56,13.30
2008,06,16,07,57,13.30
2008,06,16,07,58,13.30
2008,06,16,07,59,13.40
2008,06,16,08,00,13.40
2008,06,16,08,01,13.40
2008,06,16,08,02,13.40
2008,06,16,08,03,13.40
2008,06,16,08,04,13.40
2008,06,16,08,05,13.40
2008,06,16,08,06,13.40
2008,06,16,08,07,13.40
2008,06,16,08,08,13.30
2008,06,16,08,09,13.30
2008,06,16,08,10,13.30
2008,06,16,08,11,13.30
2008,06,16,08,12,13.30
2008,06,16,08,13,13.30
2008,06,16,08,14,13.30
2008,06,16,08,15,13.30
2008,06,16,08,16,13.30
2008,06,16,08,17,13.30
2008,06,16,08,18,13.30
2008,06,16,08,19,13.30
2008,06,16,08,20,13.40
2008,06,16,08,21,13.40
2008,06,16,08,22,13.40
2008,06,16,08,23,13.40
2008,06,16,08,24,13.40
2008,06,16,08,25,13.40
2008,06,16,08,26,13.50
2008,06,16,08,27,13.50
2008,06,16,08,28,13.60
2008,06,16,08,29,13.60
2008,06,16,08,30,13.60
2008,06,16,08,31,13.60
2008,06,16,08,32,13.60
2008,06,16,08,33,13.60
2008,06,16,08,34,13.50
2008,06,16,08,35,13.50
2008,06,16,08,36,13.60
2008,06,16,08,37,13.60
2008,06,16,08,38,13.60
2008,06,16,08,39,13.60
2008,06,16,08,40,13.70
2008,06,16,08,41,13.70
2008,06,16,08,42,13.70
2008,06,16,08,43,13.80
2008,06,16,08,44,13.90
2008,06,16,08,45,13.90
2008,06,16,08,46,14.00
2008,06,16,08,47,14.00
2008,06,16,08,48,14.00
2008,06,16,08,49,14.00
2008,06,16,08,50,14.00
2008,06,16,08,51,14.10
2008,06,16,08,52,14.10
2008,06,16,08,53,14.20
2008,06,16,08,54,14.20
2008,06,16,08,55,14.20
2008,06,16,08,56,14.20
2008,06,16,08,57,14.20
2008,06,16,08,58,14.20
2008,06,16,08,59,14.20
2008,06,16,09,00,14.20
2008,06,16,09,01,14.20
2008,06,16,09,02,14.20
2008,06,16,09,03,14.20
2008,06,16,09,04,14.20
2008,06,16,09,05,14.20
2008,06,16,09,06,14.20
2008,06,16,09,07,14.20
2008,06,16,09,08,14.30
2008,06,16,09,09,14.30
2008,06,16,09,10,14.30
2008,06,16,09,11,14.30
2008,06,16,09,12,14.40
2008,06,16,09,13,14.40
2008,06,16,09,14,14.40
2008,06,16,09,15,14.30
2008,06,16,09,16,14.30
2008,06,16,09,17,14.30
2008,06,16,09,18,14.40
2008,06,16,09,19,14.50
2008,06,16,09,20,14.60
2008,06,16,09,21,14.60
2008,06,16,09,22,14.60
2008,06,16,09,23,14.60
2008,06,16,09,24,14.50
2008,06,16,09,25,14.50
2008,06,16,09,26,14.40
2008,06,16,09,27,14.40
2008,06,16,09,28,14.50
2008,06,16,09,29,14.60
2008,06,16,09,30,14.70
2008,06,16,09,31,14.90
2008,06,16,09,32,14.90
2008,06,16,09,33,14.80
2008,06,16,09,34,14.70
2008,06,16,09,35,14.60
2008,06,16,09,36,14.50
2008,06,16,09,37,14.40
2008,06,16,09,38,14.30
2008,06,16,09,39,14.30
2008,06,16,09,40,14.20
2008,06,16,09,41,14.20
2008,06,16,09,42,14.20
2008,06,16,09,43,14.20
2008,06,16,09,44,14.30
2008,06,16,09,45,14.40
2008,06,16,09,46,14.50
2008,06,16,09,47,14.60
2008,06,16,09,48,14.50
2008,06,16,09,49,14.50
2008,06,16,09,50,14.50
2008,06,16,09,51,14.60
2008,06,16,09,52,14.60
2008,06,16,09,53,14.60
2008,06,16,09,54,14.60
2008,06,16,09,55,14.60
2008,06,16,09,56,14.40
2008,06,16,09,57,14.40
2008,06,16,09,58,14.30
2008,06,16,09,59,14.30
2008,06,16,10,00,14.40
2008,06,16,10,01,14.40
2008,06,16,10,02,14.50
2008,06,16,10,03,14.50
2008,06,16,10,04,14.60
2008,06,16,10,05,14.50
2008,06,16,10,06,14.30
2008,06,16,10,07,14.20
2008,06,16,10,08,14.10
2008,06,16,10,09,14.00
2008,06,16,10,10,14.00
2008,06,16,10,11,14.00
2008,06,16,10,12,14.00
2008,06,16,10,13,14.00
2008,06,16,10,14,14.00
2008,06,16,10,15,14.00
2008,06,16,10,16,14.00
2008,06,16,10,17,14.00
2008,06,16,10,18,14.00
2008,06,16,10,19,14.10
2008,06,16,10,20,14.10
2008,06,16,10,21,14.00
2008,06,16,10,22,14.00
2008,06,16,10,23,14.00
2008,06,16,10,24,14.00
2008,06,16,10,25,14.10
2008,06,16,10,26,14.10
2008,06,16,10,27,14.10
2008,06,16,10,28,14.00
2008,06,16,10,29,13.90
2008,06,16,10,30,14.00
2008,06,16,10,31,14.10
2008,06,16,10,32,14.10
2008,06,16,10,33,14.10
2008,06,16,10,34,14.10
2008,06,16,10,35,14.20
2008,06,16,10,36,14.30
2008,06,16,10,37,14.30
2008,06,16,10,38,14.30
2008,06,16,10,39,14.30
2008,06,16,10,40,14.30
2008,06,16,10,41,14.30
2008,06,16,10,42,14.30
2008,06,16,10,43,14.30
2008,06,16,10,44,14.50
2008,06,16,10,45,14.60
2008,06,16,10,46,14.70
2008,06,16,10,47,14.80
2008,06,16,10,48,14.80
2008,06,16,10,49,14.80
2008,06,16,10,50,14.70
2008,06,16,10,51,14.70
2008,06,16,10,52,14.70
2008,06,16,10,53,14.70
2008,06,16,10,54,14.80
2008,06,16,10,55,14.80
2008,06,16,10,56,14.80
2008,06,16,10,57,14.70
2008,06,16,10,58,14.60
2008,06,16,10,59,14.50
2008,06,16,11,00,14.50
2008,06,16,11,01,14.40
2008,06,16,11,02,14.30
2008,06,16,11,03,14.20
2008,06,16,11,04,14.20
2008,06,16,11,05,14.20
2008,06,16,11,06,14.30
2008,06,16,11,07,14.40
2008,06,16,11,08,14.50
2008,06,16,11,09,14.60
2008,06,16,11,10,14.80
2008,06,16,11,11,14.80
2008,06,16,11,12,14.80
2008,06,16,11,13,14.80
2008,06,16,11,14,14.80
2008,06,16,11,15,15.00
2008,06,16,11,16,15.00
2008,06,16,11,17,15.00
2008,06,16,11,18,15.00
2008,06,16,11,19,15.00
2008,06,16,11,20,15.00
2008,06,16,11,21,15.00
2008,06,16,11,22,15.10
2008,06,16,11,23,15.00
2008,06,16,11,24,15.00
2008,06,16,11,25,14.90
2008,06,16,11,26,14.80
2008,06,16,11,27,14.80
2008,06,16,11,28,15.00
2008,06,16,11,29,15.00
2008,06,16,11,30,15.00
2008,06,16,11,31,14.90
2008,06,16,11,32,14.70
2008,06,16,11,33,14.60
2008,06,16,11,34,14.60
2008,06,16,11,35,14.50
2008,06,16,11,36,14.50
2008,06,16,11,37,14.40
2008,06,16,11,38,14.50
2008,06,16,11,39,14.60
2008,06,16,11,40,14.60
2008,06,16,11,41,14.70
2008,06,16,11,42,14.80
2008,06,16,11,43,14.80
2008,06,16,11,44,14.90
2008,06,16,11,45,15.00
2008,06,16,11,46,15.00
2008,06,16,11,47,15.00
2008,06,16,11,48,15.00
2008,06,16,11,49,15.00
2008,06,16,11,50,15.00
2008,06,16,11,51,15.00
2008,06,16,11,52,15.00
2008,06,16,11,53,15.00
2008,06,16,11,54,15.00
2008,06,16,11,55,14.80
2008,06,16,11,56,14.90
2008,06,16,11,57,15.00
2008,06,16,11,58,15.00
2008,06,16,11,59,15.10
2008,06,16,12,00,15.30
2008,06,16,12,01,15.30
2008,06,16,12,02,15.40
2008,06,16,12,03,15.40
2008,06,16,12,04,15.30
2008,06,16,12,05,15.30
2008,06,16,12,06,15.50
2008,06,16,12,07,15.60
2008,06,16,12,08,15.70
2008,06,16,12,09,15.70
2008,06,16,12,10,15.70
2008,06,16,12,11,15.60
2008,06,16,12,12,15.50
2008,06,16,12,13,15.40
2008,06,16,12,14,15.30
2008,06,16,12,15,15.10
2008,06,16,12,16,15.00
2008,06,16,12,17,15.00
2008,06,16,12,18,15.00
2008,06,16,12,19,15.00
2008,06,16,12,20,15.00
2008,06,16,12,21,15.00
2008,06,16,12,22,15.00
2008,06,16,12,23,15.00
2008,06,16,12,24,15.00
2008,06,16,12,25,15.00
2008,06,16,12,26,15.00
2008,06,16,12,27,15.00
2008,06,16,12,28,15.00
2008,06,16,12,29,15.00
2008,06,16,12,30,15.00
2008,06,16,12,31,15.00
2008,06,16,12,32,15.00
2008,06,16,12,33,15.00
2008,06,16,12,34,15.00
2008,06,16,12,35,15.00
2008,06,16,12,36,15.00
2008,06,16,12,37,15.00
2008,06,16,12,38,15.00
2008,06,16,12,39,15.00
2008,06,16,12,40,15.00
2008,06,16,12,41,15.00
2008,06,16,12,42,15.00
2008,06,16,12,43,15.00
2008,06,16,12,44,14.90
2008,06,16,12,45,14.80
2008,06,16,12,46,14.80
2008,06,16,12,47,14.80
2008,06,16,12,48,14.80
2008,06,16,12,49,14.90
2008,06,16,12,50,15.00
2008,06,16,12,51,15.00
2008,06,16,12,52,15.00
2008,06,16,12,53,15.00
2008,06,16,12,54,15.00
2008,06,16,12,55,15.00
2008,06,16,12,56,15.00
2008,06,16,12,57,15.00
2008,06,16,12,58,15.00
2008,06,16,12,59,15.00
2008,06,16,13,00,15.00
2008,06,16,13,01,15.00
2008,06,16,13,02,15.00
2008,06,16,13,03,15.00
2008,06,16,13,04,14.90
2008,06,16,13,05,14.80
2008,06,16,13,06,14.80
2008,06,16,13,07,14.80
2008,06,16,13,08,14.80
2008,06,16,13,09,14.80
2008,06,16,13,10,14.80
2008,06,16,13,11,14.90
2008,06,16,13,12,15.00
2008,06,16,13,13,15.00
2008,06,16,13,14,15.00
2008,06,16,13,15,15.00
2008,06,16,13,16,15.00
2008,06,16,13,17,15.00
2008,06,16,13,18,15.00
2008,06,16,13,19,15.00
2008,06,16,13,20,15.00
2008,06,16,13,21,15.00
2008,06,16,13,22,15.00
2008,06,16,13,23,15.00
2008,06,16,13,24,15.00
2008,06,16,13,25,15.00
2008,06,16,13,26,15.00
2008,06,16,13,27,15.10
2008,06,16,13,28,15.20
2008,06,16,13,29,15.30
2008,06,16,13,30,15.40
2008,06,16,13,31,15.50
2008,06,16,13,32,15.60
2008,06,16,13,33,15.70
2008,06,16,13,34,15.70
2008,06,16,13,35,15.70
2008,06,16,13,36,15.70
2008,06,16,13,37,15.70
2008,06,16,13,38,15.80
2008,06,16,13,39,15.80
2008,06,16,13,40,15.80
2008,06,16,13,41,15.90
2008,06,16,13,42,15.90
2008,06,16,13,43,15.90
2008,06,16,13,44,16.00
2008,06,16,13,45,16.10
2008,06,16,13,46,16.10
2008,06,16,13,47,16.20
2008,06,16,13,48,16.20
2008,06,16,13,49,16.20
2008,06,16,13,50,16.20
2008,06,16,13,51,16.20
2008,06,16,13,52,16.20
2008,06,16,13,53,16.20
2008,06,16,13,54,16.20
2008,06,16,13,55,16.20
2008,06,16,13,56,16.30
2008,06,16,13,57,16.30
2008,06,16,13,58,16.30
2008,06,16,13,59,16.40
2008,06,16,14,00,16.50
2008,06,16,14,01,16.60
2008,06,16,14,02,16.60
2008,06,16,14,03,16.70
2008,06,16,14,04,16.60
2008,06,16,14,05,16.60
2008,06,16,14,06,16.70
2008,06,16,14,07,16.70
2008,06,16,14,08,16.70
2008,06,16,14,09,16.60
2008,06,16,14,10,16.60
2008,06,16,14,11,16.60
2008,06,16,14,12,16.50
2008,06,16,14,13,16.50
2008,06,16,14,14,16.40
2008,06,16,14,15,16.40
2008,06,16,14,16,16.40
2008,06,16,14,17,16.30
2008,06,16,14,18,16.30
2008,06,16,14,19,16.30
2008,06,16,14,20,16.40
2008,06,16,14,21,16.40
2008,06,16,14,22,16.50
2008,06,16,14,23,16.50
2008,06,16,14,24,16.50
2008,06,16,14,25,16.60
2008,06,16,14,26,16.70
2008,06,16,14,27,16.70
2008,06,16,14,28,16.80
2008,06,16,14,29,16.80
2008,06,16,14,30,16.80
2008,06,16,14,31,16.80
2008,06,16,14,32,16.80
2008,06,16,14,33,16.80
2008,06,16,14,34,16.90
2008,06,16,14,35,16.90
2008,06,16,14,36,16.80
2008,06,16,14,37,16.70
2008,06,16,14,38,16.50
2008,06,16,14,39,16.50
2008,06,16,14,40,16.50
2008,06,16,14,41,16.50
2008,06,16,14,42,16.60
2008,06,16,14,43,16.60
2008,06,16,14,44,16.60
2008,06,16,14,45,16.60
2008,06,16,14,46,16.60
2008,06,16,14,47,16.60
2008,06,16,14,48,16.60
2008,06,16,14,49,16.60
2008,06,16,14,50,16.70
2008,06,16,14,51,16.70
2008,06,16,14,52,16.70
2008,06,16,14,53,16.80
2008,06,16,14,54,16.80
2008,06,16,14,55,16.80
2008,06,16,14,56,16.80
2008,06,16,14,57,16.90
2008,06,16,14,58,16.90
2008,06,16,14,59,16.90
2008,06,16,15,00,16.90
2008,06,16,15,01,16.90
2008,06,16,15,02,16.90
2008,06,16,15,03,17.00
2008,06,16,15,04,17.00
2008,06,16,15,05,17.00
2008,06,16,15,06,17.10
2008,06,16,15,07,17.20
2008,06,16,15,08,17.20
2008,06,16,15,09,17.30
2008,06,16,15,10,17.30
2008,06,16,15,11,17.30
2008,06,16,15,12,17.30
2008,06,16,15,13,17.30
2008,06,16,15,14,17.30
2008,06,16,15,15,17.20
2008,06,16,15,16,17.20
2008,06,16,15,17,17.20
2008,06,16,15,18,17.20
2008,06,16,15,19,17.30
2008,06,16,15,20,17.30
2008,06,16,15,21,17.30
2008,06,16,15,22,17.40
2008,06,16,15,23,17.50
2008,06,16,15,24,17.60
2008,06,16,15,25,17.60
2008,06,16,15,26,17.70
2008,06,16,15,27,17.70
2008,06,16,15,28,17.80
2008,06,16,15,29,17.80
2008,06,16,15,30,17.70
2008,06,16,15,31,17.70
2008,06,16,15,32,17.70
2008,06,16,15,33,17.70
2008,06,16,15,34,17.70
2008,06,16,15,35,17.70
2008,06,16,15,36,17.80
2008,06,16,15,37,17.80
2008,06,16,15,38,17.80
2008,06,16,15,39,17.80
2008,06,16,15,40,17.80
2008,06,16,15,41,17.80
2008,06,16,15,42,17.70
2008,06,16,15,43,17.80
2008,06,16,15,44,17.90
2008,06,16,15,45,17.90
2008,06,16,15,46,17.90
2008,06,16,15,47,17.90
2008,06,16,15,48,18.00
2008,06,16,15,49,18.20
2008,06,16,15,50,18.40
2008,06,16,15,51,18.80
2008,06,16,15,52,19.00
2008,06,16,15,53,19.30
2008,06,16,15,54,19.60
2008,06,16,15,55,19.70
2008,06,16,15,56,19.90
2008,06,16,15,57,20.10
2008,06,16,15,58,20.20
2008,06,16,15,59,20.30
2008,06,16,16,00,20.30
2008,06,16,16,01,20.40
2008,06,16,16,02,20.50
2008,06,16,16,03,20.50
2008,06,16,16,04,20.50
2008,06,16,16,05,20.60
2008,06,16,16,06,20.60
2008,06,16,16,07,20.60
2008,06,16,16,08,20.70
2008,06,16,16,09,20.70
2008,06,16,16,10,20.80
2008,06,16,16,11,20.80
2008,06,16,16,12,20.80
2008,06,16,16,13,20.80
2008,06,16,16,14,20.80
2008,06,16,16,15,20.80
2008,06,16,16,16,20.80
2008,06,16,16,17,20.80
2008,06,16,16,18,20.80
2008,06,16,16,19,20.80
2008,06,16,16,20,20.90
2008,06,16,16,21,20.90
2008,06,16,16,22,20.90
2008,06,16,16,23,20.80
2008,06,16,16,24,20.80
2008,06,16,16,25,20.80
2008,06,16,16,26,20.80
2008,06,16,16,27,20.80
2008,06,16,16,28,20.80
2008,06,16,16,29,20.90
2008,06,16,16,30,20.90
2008,06,16,16,31,20.90
2008,06,16,16,32,20.90
2008,06,16,16,33,20.80
2008,06,16,16,34,20.80
2008,06,16,16,35,20.80
2008,06,16,16,36,20.70
2008,06,16,16,37,20.70
2008,06,16,16,38,20.70
2008,06,16,16,39,20.70
2008,06,16,16,40,20.60
2008,06,16,16,41,20.60
2008,06,16,16,42,20.60
2008,06,16,16,43,20.50
2008,06,16,16,44,20.50
2008,06,16,16,45,20.50
2008,06,16,16,46,20.40
2008,06,16,16,47,20.40
2008,06,16,16,48,20.40
2008,06,16,16,49,20.40
2008,06,16,16,50,20.40
2008,06,16,16,51,20.40
2008,06,16,16,52,20.40
2008,06,16,16,53,20.40
2008,06,16,16,54,20.50
2008,06,16,16,55,20.60
2008,06,16,16,56,20.60
2008,06,16,16,57,20.70
2008,06,16,16,58,20.70
2008,06,16,16,59,20.70
2008,06,16,17,00,20.70
2008,06,16,17,01,20.80
2008,06,16,17,02,20.80
2008,06,16,17,03,20.80
2008,06,16,17,04,20.80
2008,06,16,17,05,20.80
2008,06,16,17,06,20.80
2008,06,16,17,07,20.70
2008,06,16,17,08,20.70
2008,06,16,17,09,20.70
2008,06,16,17,10,20.60
2008,06,16,17,11,20.60
2008,06,16,17,12,20.50
2008,06,16,17,13,20.50
2008,06,16,17,14,20.50
2008,06,16,17,15,20.40
2008,06,16,17,16,20.50
2008,06,16,17,17,20.50
2008,06,16,17,18,20.50
2008,06,16,17,19,20.50
2008,06,16,17,20,20.50
2008,06,16,17,21,20.60
2008,06,16,17,22,20.60
2008,06,16,17,23,20.60
2008,06,16,17,24,20.60
2008,06,16,17,25,20.70
2008,06,16,17,26,20.70
2008,06,16,17,27,20.70
2008,06,16,17,28,20.80
2008,06,16,17,29,20.80
2008,06,16,17,30,20.80
2008,06,16,17,31,20.80
2008,06,16,17,32,20.80
2008,06,16,17,33,20.80
2008,06,16,17,34,20.80
2008,06,16,17,35,20.80
2008,06,16,17,36,20.80
2008,06,16,17,37,20.80
2008,06,16,17,38,20.80
2008,06,16,17,39,20.70
2008,06,16,17,40,20.80
2008,06,16,17,41,20.80
2008,06,16,17,42,20.80
2008,06,16,17,43,20.90
2008,06,16,17,44,20.90
2008,06,16,17,45,20.90
2008,06,16,17,46,20.90
2008,06,16,17,47,20.90
2008,06,16,17,48,20.90
2008,06,16,17,49,20.90
2008,06,16,17,50,20.80
2008,06,16,17,51,20.80
2008,06,16,17,52,20.70
2008,06,16,17,53,20.60
2008,06,16,17,54,20.50
2008,06,16,17,55,20.50
2008,06,16,17,56,20.40
2008,06,16,17,57,20.30
2008,06,16,17,58,20.20
2008,06,16,17,59,20.20
2008,06,16,18,00,20.20
2008,06,16,18,01,20.20
2008,06,16,18,02,20.20
2008,06,16,18,03,20.20
2008,06,16,18,04,20.20
2008,06,16,18,05,20.20
2008,06,16,18,06,20.20
2008,06,16,18,07,20.20
2008,06,16,18,08,20.10
2008,06,16,18,09,20.00
2008,06,16,18,10,19.90
2008,06,16,18,11,19.90
2008,06,16,18,12,19.80
2008,06,16,18,13,19.80
2008,06,16,18,14,19.80
2008,06,16,18,15,19.80
2008,06,16,18,16,19.70